Waarnemingen

Advertentie
Mijn weer
Reims-Prunay, Frankrijk (7072): temperatuur & dauwpunt: 15.01.2017 18:00:00 - 21.01.2017 18:00:00 (CET)Reims-Prunay, Frankrijk (7072): temperatuur 5cm: 15.01.2017 18:00:00 - 21.01.2017 18:00:00 (CET)Reims-Prunay, Frankrijk (7072): temperatuur -20cm & temperatuur -100cm: 15.01.2017 18:00:00 - 21.01.2017 18:00:00 (CET)Reims-Prunay, Frankrijk (7072): windsnelheid & windstoten: 15.01.2017 18:00:00 - 21.01.2017 18:00:00 (CET)Reims-Prunay, Frankrijk (7072): windrichting: 15.01.2017 18:00:00 - 21.01.2017 18:00:00 (CET)Reims-Prunay, Frankrijk (7072): luchtdruk: 15.01.2017 18:00:00 - 21.01.2017 18:00:00 (CET)Reims-Prunay, Frankrijk (7072): zicht: 15.01.2017 18:00:00 - 21.01.2017 18:00:00 (CET)Reims-Prunay, Frankrijk (7072): Zonneschijnduur: 15.01.2017 18:00:00 - 21.01.2017 18:00:00 (CET)Reims-Prunay, Frankrijk (7072): neerslag: 15.01.2017 18:00:00 - 21.01.2017 18:00:00 (CET)
Datum & Tijd tt [°C] td [°C] tt 5cm [°C] tt -20cm [°C] tt -100cm [°C] ff [km/u] ff [kn] fx [km/u] fx [kn] dd ppp [hPa] vv [km] sd [min] rr [mm]
21.01.2017 18:00:00 -1,3 -3,8 -5,5 1,2 6,1 3 2 7 4 NO 1027,7 9 0 0,0
21.01.2017 17:00:00 1,2 -3,7 0,3 1,1 6,1 6 3 9 5 ZZO 1027,3 11 54 0,0
21.01.2017 16:00:00 2,7 -3,4 3,1 1,2 6,1 6 3 11 6 ZO 1027,4 11 60 0,0
21.01.2017 15:00:00 2,2 -3,9 5,0 1,1 6,1 8 4 14 7 OZO 1027,4 12 60 0,0
21.01.2017 14:00:00 1,6 -4,3 4,4 1,2 6,1 9 5 15 8 O 1028,0 10 60 0,0
21.01.2017 13:00:00 0,5 -4,7 2,1 1,2 6,1 9 5 18 10 ZO 1028,9 11 60 0,0
21.01.2017 12:00:00 -1,3 -5,2 -0,6 1,2 6,1 15 8 22 12 ZO 1029,3 11 60 0,0
21.01.2017 11:00:00 -4,0 -6,8 -3,9 1,2 6,1 9 5 12 7 OZO 1029,8 10 60 0,0
21.01.2017 10:00:00 -6,2 -8,6 -8,5 1,2 6,1 8 4 10 5 O 1029,7 11 60 0,0
21.01.2017 09:00:00 -8,7 -10,6 -13,2 1,2 6,1 9 5 11 6 O 1029,7 12 5 0,0
21.01.2017 08:00:00 -9,7 -11,7 -13,2 1,3 6,2 4 2 9 5 O 1029,6 15 0 0,0
21.01.2017 07:00:00 -8,8 -10,9 -13,2 1,3 6,2 7 4 11 6 O 1029,5 18 0 0,0
21.01.2017 06:00:00 -8,2 -10,6 -13,7 1,3 6,2 8 4 14 8 ONO 1029,6 18 0 0,0
21.01.2017 05:00:00 -9,9 -11,4 -12,9 1,3 6,2 3 2 5 3 NNO 1029,8 18 0 0,0
21.01.2017 04:00:00 -8,7 -10,6 -12,4 1,3 6,2 0 0 6 4 N 1030,0 20 0 0,0
21.01.2017 03:00:00 -10,2 -12,5 -12,8 1,4 6,2 3 2 6 3 NNO 1030,2 19 0 0,0
21.01.2017 02:00:00 -8,2 -9,5 -12,4 1,3 6,2 5 3 9 5 ONO 1030,3 20 0 0,0
21.01.2017 01:00:00 -8,3 -10,2 -11,5 1,4 6,2 7 4 9 5 O 1030,3 20 0 0,0
21.01.2017 00:00:00 -7,2 -9,4 -11,4 1,4 6,2 7 4 10 5 O 1030,6 20 0 0,0
20.01.2017 23:00:00 -7,3 -9,1 -12,0 1,4 6,2 4 2 8 4 O 1030,8 10 0 0,0
20.01.2017 22:00:00 -7,2 -9,1 -12,2 1,4 6,2 6 4 8 4 O 1031,0 18 0 0,0
20.01.2017 21:00:00 -6,2 -8,3 -10,5 1,4 6,2 6 3 7 4 O 1030,9 18 0 0,0
20.01.2017 20:00:00 -5,0 -6,7 -9,7 1,4 6,2 2 1 6 4 OZO 1030,8 19 0 0,0
20.01.2017 19:00:00 -3,8 -5,6 -9,6 1,4 6,2 0 0 6 3 N 1030,7 18 0 0,0
20.01.2017 18:00:00 -0,5 -5,3 -5,5 1,4 6,3 5 3 9 5 O 1030,6 20 0 0,0
20.01.2017 17:00:00 0,4 -3,5 0,6 1,4 6,2 6 3 13 7 O 1030,5 20 52 0,0
20.01.2017 16:00:00 2,1 -5,1 2,4 1,4 6,3 11 6 17 9 OZO 1030,7 20 60 0,0
20.01.2017 15:00:00 2,2 -5,7 4,7 1,4 6,2 11 6 19 10 OZO 1030,5 20 60 0,0
20.01.2017 14:00:00 1,8 -6,1 3,9 1,4 6,3 11 6 23 12 OZO 1031,0 20 60 0,0
20.01.2017 13:00:00 1,1 -6,0 2,9 1,4 6,3 12 6 23 12 ZO 1031,7 20 60 0,0
20.01.2017 12:00:00 -0,3 -6,9 1,2 1,4 6,3 14 7 19 11 OZO 1032,4 20 60 0,0
20.01.2017 11:00:00 -2,1 -5,9 -1,6 1,4 6,3 8 4 11 6 ZO 1032,9 20 60 0,0
20.01.2017 10:00:00 -5,9 -7,7 -9,6 1,5 6,3 5 3 7 4 O 1032,9 17 60 0,0
20.01.2017 09:00:00 -10,4 -12,1 -14,1 1,5 6,3 3 2 6 3 Z 1033,0 13 4 0,0
20.01.2017 08:00:00 -11,0 -12,7 -13,9 1,5 6,3 0 0 5 3 N 1033,1 14 0 0,0
20.01.2017 07:00:00 -9,8 -11,3 -13,6 1,5 6,3 0 0 6 3 N 1032,7 20 0 0,0
20.01.2017 06:00:00 -10,3 -11,9 -13,4 1,6 6,3 4 2 8 4 ZW 1032,8 16 0 0,0
20.01.2017 05:00:00 -8,3 -11,1 -13,0 1,6 6,4 2 1 8 4 N 1032,8 19 0 0,0
20.01.2017 04:00:00 -9,0 -10,6 -12,6 1,6 6,4 4 2 8 4 ZW 1033,0 16 0 0,0
20.01.2017 03:00:00 -9,1 -10,9 -12,2 1,6 6,4 0 0 3 2 N 1033,1 18 0 0,0
20.01.2017 02:00:00 -8,0 -10,1 -11,5 1,6 6,3 0 0 10 6 N 1033,3 20 0 0,0
20.01.2017 01:00:00 -6,3 -9,3 -10,9 1,6 6,4 7 4 11 6 NNO 1033,5 20 0 0,0
20.01.2017 00:00:00 -3,3 -8,4 -8,2 1,6 6,4 7 4 12 7 NO 1033,4 20 0 0,0
19.01.2017 23:00:00 -2,5 -8,2 -4,3 1,6 6,4 8 4 18 10 NO 1033,6 20 0 0,0
19.01.2017 22:00:00 -2,2 -7,7 -4,0 1,6 6,4 9 5 19 11 NO 1033,8 20 0 0,0
19.01.2017 21:00:00 -1,7 -7,4 -3,7 1,6 6,4 10 5 18 10 NO 1033,6 20 0 0,0
19.01.2017 20:00:00 -1,3 -6,6 -7,0 1,6 6,4 9 5 16 9 NO 1033,6 20 0 0,0
19.01.2017 19:00:00 -1,4 -6,2 -5,0 1,6 6,4 5 3 14 8 NO 1033,4 20 0 0,0
19.01.2017 18:00:00 -0,3 -5,5 -3,4 1,7 6,4 9 5 14 7 ONO 1033,2 20 0 0,0
19.01.2017 17:00:00 1,2 -4,9 0,4 1,6 6,4 7 4 18 10 NO 1033,1 20 51 0,0
19.01.2017 16:00:00 2,1 -4,0 2,3 1,6 6,4 12 6 23 12 ONO 1033,3 19 60 0,0
19.01.2017 15:00:00 1,9 -4,8 4,9 1,7 6,4 13 7 21 12 NO 1033,2 18 60 0,0
19.01.2017 14:00:00 1,6 -5,1 4,2 1,7 6,4 19 11 27 15 ONO 1033,5 19 60 0,0
19.01.2017 13:00:00 0,6 -5,2 3,0 1,7 6,4 16 9 22 12 ONO 1034,2 17 60 0,0
19.01.2017 12:00:00 -0,6 -6,2 0,9 1,7 6,4 14 8 22 12 ONO 1034,6 17 60 0,0
19.01.2017 11:00:00 -2,0 -6,6 -0,8 1,7 6,4 14 8 21 11 O 1035,0 16 60 0,0
19.01.2017 10:00:00 -4,9 -7,8 -7,8 1,7 6,4 5 3 7 4 N 1034,8 14 60 0,0
19.01.2017 09:00:00 -7,6 -9,5 -11,8 1,8 6,5 4 2 6 4 N 1034,7 13 3 0,0
19.01.2017 08:00:00 -9,4 -11,0 -12,4 1,8 6,5 0 0 4 2 N 1034,4 10 0 0,0
19.01.2017 07:00:00 -7,5 -9,1 -11,0 1,8 6,5 3 2 14 7 NW 1034,5 10 0 0,0
19.01.2017 06:00:00 -9,1 -10,9 -11,5 1,8 6,5 9 5 10 6 NNO 1034,6 13 0 0,0
19.01.2017 05:00:00 -7,4 -9,6 -11,0 1,8 6,5 0 0 11 6 N 1034,3 14 0 0,0
19.01.2017 04:00:00 -5,5 -8,6 -8,4 1,9 6,5 6 3 15 8 NO 1034,2 19 0 0,0
19.01.2017 03:00:00 -4,8 -8,4 -7,2 1,9 6,5 7 4 19 10 NO 1034,6 19 0 0,0
19.01.2017 02:00:00 -4,1 -7,9 -5,5 1,9 6,5 13 7 27 15 NO 1034,5 19 0 0,0
19.01.2017 01:00:00 -4,0 -8,1 -5,9 1,9 6,5 9 5 17 9 NO 1034,8 20 0 0,0
19.01.2017 00:00:00 -3,7 -8,0 -5,9 1,9 6,5 6 4 16 9 NO 1035,2 20 0 0,0
18.01.2017 23:00:00 -3,8 -8,3 -6,0 1,9 6,5 7 4 15 8 NO 1035,2 20 0 0,0
18.01.2017 22:00:00 -3,5 -8,6 -5,6 1,9 6,5 6 3 22 12 NNO 1035,1 20 0 0,0
18.01.2017 21:00:00 -3,2 -8,1 -5,5 2,0 6,5 8 4 24 13 ONO 1034,9 20 0 0,0
18.01.2017 20:00:00 -2,4 -7,7 -3,8 2,0 6,5 17 9 39 21 ONO 1035,0 20 0 0,0
18.01.2017 19:00:00 -2,2 -6,9 -3,5 2,0 6,5 20 11 31 17 ONO 1034,8 20 0 0,0
18.01.2017 18:00:00 -1,3 -6,8 -2,4 2,0 6,5 24 13 36 19 ONO 1034,6 20 0 0,0
18.01.2017 17:00:00 -0,4 -6,0 -0,8 2,0 6,5 18 10 33 18 ONO 1034,5 20 49 0,0
18.01.2017 16:00:00 0,5 -5,5 0,5 2,0 6,5 20 11 36 19 ONO 1034,5 20 60 0,0
18.01.2017 15:00:00 0,3 -5,5 1,9 2,1 6,6 26 14 40 22 ONO 1034,6 20 60 0,0
18.01.2017 14:00:00 -0,1 -5,3 1,7 2,1 6,5 28 15 41 22 ONO 1034,6 20 60 0,0
18.01.2017 13:00:00 -0,7 -5,5 1,3 2,1 6,5 26 14 39 21 ONO 1035,2 20 60 0,0
18.01.2017 12:00:00 -1,5 -5,9 0,2 2,1 6,5 26 14 38 21 ONO 1035,8 20 60 0,0
18.01.2017 11:00:00 -2,5 -6,3 -1,2 2,1 6,5 25 14 34 18 ONO 1036,2 20 60 0,0
18.01.2017 10:00:00 -4,3 -7,4 -4,4 2,2 6,6 14 7 22 12 ONO 1036,5 20 60 0,0
18.01.2017 09:00:00 -5,3 -8,4 -9,6 2,2 6,6 11 6 20 11 NO 1036,3 20 2 0,0
18.01.2017 08:00:00 -7,4 -9,8 -10,3 2,3 6,6 7 4 10 5 NNO 1036,2 20 0 0,0
18.01.2017 07:00:00 -7,0 -9,4 -10,6 2,3 6,6 0 0 14 7 N 1035,9 20 0 0,0
18.01.2017 06:00:00 -5,5 -8,4 -7,6 2,3 6,6 10 5 20 11 ONO 1035,8 20 0 0,0
18.01.2017 05:00:00 -4,6 -7,9 -5,8 2,4 6,6 14 8 27 15 NO 1035,6 20 0 0,0
18.01.2017 04:00:00 -4,4 -7,7 -5,6 2,4 6,6 17 9 30 16 NO 1035,5 20 0 0,0
18.01.2017 03:00:00 -4,1 -7,4 -5,4 2,4 6,6 21 11 33 18 NO 1035,7 20 0 0,0
18.01.2017 02:00:00 -4,4 -7,3 -5,5 2,4 6,6 16 9 29 16 NO 1036,0 20 0 0,0
18.01.2017 01:00:00 -4,5 -7,3 -5,6 2,5 6,6 16 8 31 17 NNO 1036,1 20 0 0,0
18.01.2017 00:00:00 -4,4 -7,2 -5,4 2,5 6,6 18 10 29 15 NNO 1036,1 20 0 0,0
17.01.2017 23:00:00 -4,2 -7,1 -5,5 2,5 6,6 17 9 27 15 NNO 1036,1 20 0 0,0
17.01.2017 22:00:00 -4,0 -7,3 -5,4 2,5 6,6 13 7 23 13 NNO 1036,3 20 0 0,0
17.01.2017 21:00:00 -3,6 -7,0 -4,9 2,6 6,6 13 7 25 13 NO 1036,2 20 0 0,0
17.01.2017 20:00:00 -3,4 -6,7 -5,5 2,6 6,6 11 6 19 11 NO 1036,2 20 0 0,0
17.01.2017 19:00:00 -3,1 -6,2 -4,7 2,6 6,6 10 6 16 9 NNO 1035,7 20 0 0,0
17.01.2017 18:00:00 -2,6 -5,7 -4,3 2,6 6,6 10 5 17 9 NNO 1035,4 20 0 0,0
17.01.2017 17:00:00 -1,8 -5,6 -1,8 2,7 6,6 8 4 22 12 NNO 1035,1 20 45 0,0
17.01.2017 16:00:00 -1,4 -5,4 -1,0 2,7 6,6 13 7 25 14 NNO 1035,2 20 45 0,0
17.01.2017 15:00:00 -1,5 -5,7 -1,5 2,8 6,6 16 8 24 13 NO 1035,3 20 41 0,0
17.01.2017 14:00:00 -2,4 -5,7 -1,8 2,8 6,6 13 7 28 15 NO 1035,6 20 15 0,0
17.01.2017 13:00:00 -2,5 -5,8 -3,6 2,8 6,6 18 10 31 17 ONO 1036,0 20 19 0,0
17.01.2017 12:00:00 -3,5 -6,1 -4,1 2,9 6,6 16 9 32 17 ONO 1036,4 17 0 0,0
17.01.2017 11:00:00 -4,1 -6,2 -5,1 2,9 6,6 17 9 26 14 ONO 1036,5 12 0 0,0
17.01.2017 10:00:00 -4,9 -7,0 -5,9 3,0 6,6 13 7 23 12 NO 1036,3 11 46 0,0
17.01.2017 09:00:00 -5,4 -7,2 -9,1 3,0 6,6 11 6 16 9 NNO 1035,1 9 1 0,0
17.01.2017 08:00:00 -5,8 -7,3 -9,4 3,1 6,6 6 3 15 8 N 1034,5 8 0 0,0
17.01.2017 07:00:00 -6,3 -7,4 -8,9 3,1 6,6 9 5 12 7 NNW 1034,1 6 0 0,0
17.01.2017 06:00:00 -5,4 -6,4 -9,5 3,2 6,6 9 5 13 7 NNW 1033,3 7 0 0,0
17.01.2017 05:00:00 -7,0 -8,2 -8,6 3,3 6,6 10 6 11 6 N 1033,1 7 0 0,0
17.01.2017 04:00:00 -5,4 -6,9 -8,5 3,3 6,6 5 3 16 9 - 1032,9 7 0 0,0
17.01.2017 03:00:00 -3,4 -5,0 -8,0 3,4 6,6 11 6 15 8 NNO 1032,5 9 0 0,0
17.01.2017 02:00:00 -4,3 -5,4 -6,9 3,4 6,6 9 5 14 8 NNO 1032,2 7 0 0,0
17.01.2017 01:00:00 -2,6 -3,9 -5,9 3,5 6,6 11 6 14 8 NNO 1032,1 8 0 0,0
17.01.2017 00:00:00 -2,6 -4,3 -6,0 3,6 6,6 9 5 15 8 NNO 1031,8 9 0 0,0
16.01.2017 23:00:00 -1,7 -3,0 -4,1 3,6 6,6 9 5 15 8 NNO 1031,1 12 0 0,0
16.01.2017 22:00:00 -1,2 -2,8 -3,7 3,7 6,6 7 4 14 8 NO 1030,4 15 0 0,0
16.01.2017 21:00:00 -0,5 -1,9 -2,9 3,7 6,7 8 4 14 7 NO 1029,6 16 0 0,0
16.01.2017 20:00:00 -0,2 -1,3 -4,0 3,7 6,6 9 5 13 7 NNO 1029,1 12 0 0,0
16.01.2017 19:00:00 0,8 -0,4 -1,8 3,8 6,6 5 3 10 6 NO 1028,5 9 0 0,0
16.01.2017 18:00:00 0,5 -0,2 -3,5 3,8 6,7 5 3 9 5 NNO 1028,0 7 0 0,0
16.01.2017 17:00:00 0,5 -0,6 -0,6 3,7 6,7 6 3 8 4 N 1027,3 10 0 0,0
16.01.2017 16:00:00 1,8 0,6 0,7 3,6 6,6 0 0 4 2 N 1027,1 11 21 0,2
16.01.2017 15:00:00 0,6 -0,1 0,6 3,6 6,6 6 3 16 9 N 1027,1 1,2 0 0,2
16.01.2017 14:00:00 1,8 -0,1 2,3 3,5 6,6 13 7 23 12 N 1026,9 12 2 0,0
16.01.2017 13:00:00 2,6 -0,7 3,5 3,5 6,6 9 5 15 8 N 1027,0 20 29 0,0
16.01.2017 12:00:00 2,1 -1,5 2,4 3,5 6,7 4 2 8 4 - 1026,9 10 30 0,0
16.01.2017 11:00:00 2,1 -0,7 3,2 3,5 6,7 4 2 8 4 - 1026,9 10 60 0,0
16.01.2017 10:00:00 0,9 -0,6 -2,6 3,6 6,6 0 0 7 4 N 1026,6 9 60 0,0
16.01.2017 09:00:00 -0,7 -1,3 -2,9 3,6 6,6 5 3 9 5 ONO 1026,2 5 0 0,0
16.01.2017 08:00:00 -0,2 -0,5 -3,7 3,6 6,7 0 0 9 5 N 1025,9 5 0 0,0
16.01.2017 07:00:00 -0,4 -1,1 -3,2 3,6 6,6 0 0 13 7 N 1025,2 5 0 0,0
16.01.2017 06:00:00 0,7 0,3 0,3 3,6 6,6 10 5 16 9 N 1024,6 6 0 0,0
16.01.2017 05:00:00 0,8 0,7 0,6 3,7 6,7 2 1 5 3 NNW 1024,4 4,0 0 0,0
16.01.2017 04:00:00 0,7 0,6 -0,5 3,7 6,7 3 1 5 3 NW 1024,1 3,8 0 0,0
16.01.2017 03:00:00 0,7 0,6 0,4 3,7 6,6 0 0 9 5 N 1023,9 2,7 0 0,0
16.01.2017 02:00:00 0,5 0,4 -0,5 3,7 6,6 9 5 13 7 O 1023,9 1,9 0 0,0
16.01.2017 01:00:00 0,5 0,4 -0,7 3,7 6,6 0 0 9 5 N 1023,4 1,8 0 0,0
16.01.2017 00:00:00 0,9 0,8 0,7 3,8 6,7 6 3 8 5 O 1023,7 2,6 0 0,0
15.01.2017 23:00:00 0,9 0,6 0,7 3,7 6,7 4 2 9 5 OZO 1023,4 2,0 0 0,0
15.01.2017 22:00:00 0,9 0,6 0,4 3,8 6,7 8 4 9 5 O 1023,5 6 0 0,0
15.01.2017 21:00:00 0,7 0,4 0,2 3,8 6,7 7 4 8 5 O 1023,2 4,4 0 0,0
15.01.2017 20:00:00 1,0 0,6 0,2 3,7 6,6 4 2 5 3 OZO 1023,1 4,3 0 0,0
15.01.2017 19:00:00 1,4 0,8 0,3 3,7 6,7 0 0 9 5 N 1023,3 11 0 0,0
15.01.2017 18:00:00 1,7 0,8 0,7 3,7 6,7 3 2 11 6 WZW 1023,3 11 0 0,2

tt = temperatuur
td = dauwpunt
tt 5cm = temperatuur 5cm
tt -20cm = temperatuur -20cm
tt -100cm = temperatuur -100cm
ff = windsnelheid
fx = windstoten
dd = windrichting
ppp = luchtdruk
vv = zicht
sd = Zonneschijnduur
rr = neerslag

Weerstations in de omgeving